Date String (YYYY-MM-DD hh:mm:ss) UTC,Instrument flags,Ambient pressure (hPa),Sample flow (lpm),Bypass flow (lpm),Sample temperature (°C),Ambient temperature (°C),ASC tube jacket temperature (°C),LED temperature (°C),Box temperature (°C),Sample RH (%),Span deviation,Mass concentration (μg/m³),Mass concentration (μg/m³),Mass concentration (μg/m³)
DateTimeUTC,F1_M11,P_M11,Q1_M11,Q2_M11,T1_M11,T2_M11,T3_M11,T4_M11,T5_M11,U1_M11,ZSPAN_M11,X0_M11,X2_M11,X1_M11
2022-11-20 19:00:00,,0828.7,5.01,0.00,25.0,24.0,00.0,33.7,26.9,09.7,0000.0,0012.76,0005.83,0005.24
2022-11-20 19:01:00,,0828.7,5.00,0.00,25.0,24.0,00.0,33.7,26.9,09.4,0000.0,0012.70,0005.83,0005.27
2022-11-20 19:02:00,,0828.8,4.99,0.00,25.0,24.0,00.0,33.8,26.9,09.4,0000.0,0013.01,0005.89,0005.30
2022-11-20 19:03:00,,0828.7,4.99,0.00,25.0,24.1,00.0,33.8,27.0,09.4,0000.0,0013.10,0005.97,0005.32
2022-11-20 19:04:00,,0828.7,5.00,0.00,25.1,24.1,00.0,33.8,27.0,09.3,0000.0,0012.93,0005.94,0005.30
2022-11-20 19:05:00,,0828.8,5.01,0.00,25.1,24.1,00.0,33.8,27.0,09.5,0000.0,0012.79,0005.96,0005.29
2022-11-20 19:06:00,,0828.7,5.01,0.00,25.1,24.1,00.0,33.8,27.0,09.4,0000.0,0013.41,0006.02,0005.29
2022-11-20 19:07:00,,0828.9,5.01,0.00,25.1,24.2,00.0,33.9,27.1,09.5,0000.0,0014.17,0006.03,0005.29
2022-11-20 19:08:00,,0829.2,5.00,0.00,25.2,24.2,00.0,33.9,27.1,09.7,0000.0,0013.87,0005.98,0005.26
2022-11-20 19:09:00,,0829.2,5.00,0.00,25.2,24.2,00.0,33.9,27.1,09.6,0000.0,0013.56,0006.00,0005.25
2022-11-20 19:10:00,,0828.8,5.00,0.00,25.2,24.2,00.0,33.9,27.1,09.7,0000.0,0013.20,0006.00,0005.23
2022-11-20 19:11:00,,0829.2,5.00,0.00,25.2,24.3,00.0,33.9,27.1,09.7,0000.0,0013.01,0006.00,0005.22
2022-11-20 19:12:00,,0829.2,5.00,0.00,25.2,24.3,00.0,34.0,27.2,09.7,0000.0,0012.54,0006.01,0005.21
2022-11-20 19:13:00,,0829.1,5.00,0.00,25.3,24.3,00.0,34.0,27.2,09.9,0000.0,0011.82,0005.97,0005.21
2022-11-20 19:14:00,,0828.8,5.00,0.00,25.3,24.3,00.0,34.0,27.2,09.8,0000.0,0011.84,0005.93,0005.21
2022-11-20 19:15:00,,0828.5,5.00,0.00,25.3,24.3,00.0,34.0,27.2,09.8,0000.0,0011.93,0005.95,0005.23
2022-11-20 19:16:00,,0829.0,5.00,0.00,25.3,24.3,00.0,34.0,27.2,09.5,0000.0,0012.27,0006.00,0005.26
2022-11-20 19:17:00,,0828.9,5.01,0.00,25.3,24.3,00.0,34.1,27.2,09.4,0000.0,0011.99,0006.01,0005.27
2022-11-20 19:18:00,,0828.7,5.01,0.00,25.3,24.4,00.0,34.1,27.2,09.5,0000.0,0012.04,0006.03,0005.29
2022-11-20 19:19:00,,0829.0,5.00,0.00,25.4,24.4,00.0,34.1,27.3,09.7,0000.0,0012.31,0006.11,0005.32
2022-11-20 19:20:00,,0828.9,5.01,0.00,25.4,24.4,00.0,34.1,27.3,09.7,0000.0,0012.59,0006.14,0005.35
2022-11-20 19:21:00,,0828.6,5.00,0.00,25.4,24.4,00.0,34.1,27.3,09.8,0000.0,0012.74,0006.18,0005.36
2022-11-20 19:22:00,,0828.6,5.00,0.00,25.4,24.4,00.0,34.1,27.3,09.3,0000.0,0012.72,0006.16,0005.36
2022-11-20 19:23:00,,0828.6,5.00,0.00,25.4,24.4,00.0,34.2,27.3,09.1,0000.0,0012.88,0006.22,0005.37
2022-11-20 19:24:00,,0828.5,5.00,0.00,25.5,24.5,00.0,34.2,27.4,09.2,0000.0,0013.02,0006.22,0005.36
2022-11-20 19:25:00,,0828.5,5.00,0.00,25.5,24.5,00.0,34.2,27.4,08.8,0000.0,0013.25,0006.19,0005.36
2022-11-20 19:26:00,,0828.5,4.99,0.00,25.5,24.5,00.0,34.2,27.4,09.0,0000.0,0013.64,0006.17,0005.37
2022-11-20 19:27:00,,0828.5,5.00,0.00,25.5,24.5,00.0,34.3,27.4,09.1,0000.0,0013.44,0006.13,0005.38
2022-11-20 19:28:00,,0828.5,5.01,0.00,25.5,24.5,00.0,34.3,27.4,09.3,0000.0,0013.42,0006.14,0005.39
2022-11-20 19:29:00,,0828.4,5.01,0.00,25.6,24.6,00.0,34.3,27.5,09.9,0000.0,0012.95,0006.17,0005.40
2022-11-20 19:30:00,,0828.5,4.99,0.00,25.6,24.6,00.0,34.3,27.5,09.8,0000.0,0013.80,0006.19,0005.42
2022-11-20 19:31:00,,0828.5,4.99,0.00,25.6,24.6,00.0,34.3,27.5,09.8,0000.0,0013.63,0006.20,0005.46
2022-11-20 19:32:00,,0828.5,5.02,0.00,25.6,24.6,00.0,34.3,27.5,09.8,0000.0,0014.24,0006.20,0005.52
2022-11-20 19:33:00,,0828.4,4.99,0.00,25.6,24.6,00.0,34.4,27.5,09.7,0000.0,0014.37,0006.28,0005.57
2022-11-20 19:34:00,,0828.4,4.99,0.00,25.6,24.6,00.0,34.4,27.6,09.6,0000.0,0014.47,0006.29,0005.62
2022-11-20 19:35:00,,0828.5,5.01,0.00,25.7,24.7,00.0,34.4,27.6,09.5,0000.0,0015.45,0006.34,0005.70
2022-11-20 19:36:00,,0828.4,5.00,0.00,25.7,24.7,00.0,34.4,27.6,09.6,0000.0,0015.73,0006.45,0005.77
2022-11-20 19:37:00,,0828.4,4.99,0.00,25.7,24.7,00.0,34.4,27.6,09.5,0000.0,0015.00,0006.53,0005.82
2022-11-20 19:38:00,,0828.4,4.99,0.00,25.7,24.7,00.0,34.5,27.6,09.4,0000.0,0016.10,0006.58,0005.87
2022-11-20 19:39:00,,0828.4,5.00,0.00,25.7,24.7,00.0,34.5,27.6,09.4,0000.0,0016.36,0006.64,0005.92
2022-11-20 19:40:00,,0828.3,5.00,0.00,25.8,24.7,00.0,34.5,27.7,09.3,0000.0,0016.24,0006.68,0005.97
2022-11-20 19:41:00,,0828.3,5.01,0.00,25.8,24.7,00.0,34.5,27.7,09.0,0000.0,0015.38,0006.67,0006.01
2022-11-20 19:42:00,,0828.3,5.01,0.00,25.8,24.8,00.0,34.5,27.7,09.0,0000.0,0015.57,0006.73,0006.06
2022-11-20 19:43:00,,0828.3,4.99,0.00,25.8,24.8,00.0,34.6,27.7,08.7,0000.0,0015.60,0006.76,0006.10
2022-11-20 19:44:00,,0828.3,4.99,0.00,25.8,24.8,00.0,34.6,27.7,08.5,0000.0,0016.50,0006.76,0006.13
2022-11-20 19:45:00,,0828.3,5.00,0.00,25.8,24.8,00.0,34.6,27.7,08.6,0000.0,0016.39,0006.80,0006.18
2022-11-20 19:46:00,,0828.3,5.01,0.00,25.8,24.8,00.0,34.6,27.7,08.5,0000.0,0015.69,0006.82,0006.22
2022-11-20 19:47:00,,0828.3,5.01,0.00,25.9,24.8,00.0,34.6,27.8,09.0,0000.0,0014.72,0006.83,0006.25
2022-11-20 19:48:00,,0828.3,4.99,0.00,25.9,24.8,00.0,34.6,27.8,09.3,0000.0,0014.70,0006.83,0006.28
2022-11-20 19:49:00,,0828.3,5.00,0.00,25.9,24.9,00.0,34.6,27.8,09.4,0000.0,0014.00,0006.90,0006.33
2022-11-20 19:50:00,,0828.3,5.00,0.00,25.9,24.9,00.0,34.7,27.8,09.2,0000.0,0012.90,0006.91,0006.36
2022-11-20 19:51:00,,0828.3,4.99,0.00,25.9,24.9,00.0,34.7,27.8,09.3,0000.0,0012.72,0006.88,0006.40
2022-11-20 19:52:00,,0828.3,5.00,0.00,26.0,24.9,00.0,34.7,27.9,09.1,0000.0,0012.55,0006.90,0006.43
2022-11-20 19:53:00,,0828.3,5.01,0.00,26.0,24.9,00.0,34.7,27.9,08.9,0000.0,0012.34,0006.93,0006.47
2022-11-20 19:54:00,,0828.3,5.01,0.00,26.0,25.0,00.0,34.7,27.9,09.2,0000.0,0011.70,0006.95,0006.49
2022-11-20 19:55:00,,0828.3,5.00,0.00,26.0,25.0,00.0,34.7,27.9,09.5,0000.0,0010.55,0007.01,0006.51
2022-11-20 19:56:00,,0828.3,4.99,0.00,26.0,25.0,00.0,34.8,27.9,08.9,0000.0,0010.47,0006.99,0006.52
2022-11-20 19:57:00,,0828.3,4.99,0.00,26.0,25.0,00.0,34.8,27.9,08.9,0000.0,0010.57,0007.00,0006.53
2022-11-20 19:58:00,,0828.3,5.01,0.00,26.1,25.0,00.0,34.8,27.9,09.2,0000.0,0010.53,0007.00,0006.54
2022-11-20 19:59:00,,0828.3,5.01,0.00,26.1,25.0,00.0,34.8,27.9,09.1,0000.0,0011.23,0007.00,0006.56
